Regional Weather Roundup
Issued by NWS

Home | Current Version | Previous Version | Text Only | Print | Product List | Glossary On
Versions: 1 2 3 4 5 6 7 8 9 10 11 12 13 14 15 16 17 18 19 20 21 22 23 24 25 26 27 28 29 30 31 32 33 34 35 36 37 38 39 40 41 42 43 44 45 46 47 48 49 50
000
ASUS43 KIND 242209
RWRIN

WEATHER ROUNDUP FOR INDIANA
NATIONAL WEATHER SERVICE INDIANAPOLIS IN
500 PM EST SAT FEB 24 2018

NOTE: "FAIR" INDICATES FEW OR NO CLOUDS BELOW 12,000 FEET WITH NO
SIGNIFICANT WEATHER AND/OR OBSTRUCTIONS TO VISIBILITY.

* - STATION DOES NOT REPORT WEATHER SUCH AS PRECIPITATION OR FOG.

+ - STATION NOT QUALITY CONTROLLED BY THE NATIONAL WEATHER SERVICE.
    USE DATA WITH CAUTION...ESPECIALLY DEWPOINT AND RELATIVE
    HUMIDITY OBSERVATIONS.

INZ001>003-010>013-019-020-242300-
NORTHWEST INDIANA

CITY           SKY/WX    TMP DP  RH WIND       PRES   REMARKS
GARY /AIRPORT/ CLOUDY    45  39  81 SE12      29.89F
LA PORTE +     CLOUDY    41  38  90 E17       29.92F
MICHIGAN CITY+ CLOUDY    41  37  87 SE8G16    29.91F
MONTICELLO +   CLOUDY    46  45  93 E9G17     29.89F
RENSSELAER +   CLOUDY    46  41  81 E14       29.89F
VALPARAISO     CLOUDY    45  40  82 E15       29.90F

$$

LMZ046-743>745-242300-
SOUTHERN LAKE MICHIGAN

STATION/POSITION TIME  TEMP    WIND        PRES    WAVE
                       AIR SEA DIR/SP/G            HT
                 (UTC) (F)     (DEG/KT/KT) (MB)    (FT)
BURNS HARBOR     2140   42     110/  9/ 16 1012.9F
MICHIGAN CITY    2140   41     100/ 13/ 16   N/A

$$

INZ004-005-014>016-021>024-242300-
NORTH CENTRAL INDIANA

CITY           SKY/WX    TMP DP  RH WIND       PRES   REMARKS
ELKHART        CLOUDY    39  36  87 E15       29.95F WCI  31
GOSHEN         CLOUDY    41  37  86 E12       29.96F
LOGANSPORT +   CLOUDY    45  43  93 E16G24    29.91F
PERU/GRISSOM   CLOUDY    46  46 100 E15       29.89F
ROCHESTER +    CLOUDY    45  43  93 E15G21    29.92F
SOUTH BEND     CLOUDY    40  36  86 E15G24    29.94F WCI  32
WARSAW +       CLOUDY    41  39  93 MISG      29.94F

$$

INZ006>009-017-018-025>027-242300-
NORTHEAST INDIANA

CITY           SKY/WX    TMP DP  RH WIND       PRES   REMARKS
AUBURN +       CLOUDY    39  36  87 E8G17     30.00S WCI  34
FORT WAYNE     CLOUDY    43  40  89 E16       29.97F
HUNTINGTON +   CLOUDY    42  41  96 E9        29.95F
KENDALLVILLE + CLOUDY    39  36  88 E12G18    29.98S WCI  32

$$

INZ028-029-035-036-043>045-051>053-242300-
WEST CENTRAL INDIANA

CITY           SKY/WX    TMP DP  RH WIND       PRES   REMARKS
CRAWFORDSVL +  CLOUDY    48  48 100 E10         N/A
GREENCASTLE +  CLOUDY    50  46  87 SE7       29.88F
LAFAYETTE      CLOUDY    47  47 100 E10       29.87F FOG
TERRE HAUTE    CLOUDY    53  51  93 E9        29.83F

$$

INZ030>032-037>040-046>048-054>057-064-065-242300-
CENTRAL INDIANA

CITY           SKY/WX    TMP DP  RH WIND       PRES   REMARKS
COLUMBUS       CLOUDY    50 N/A N/A E6        29.90F
FISHERS *+     CLOUDY    48  48 100 SE9       29.89F
FRANKFORT +    CLOUDY    52  49  90 SE14      29.89F
GREENWOOD *+   CLOUDY    49 -42   2 SE8       29.89F
INDIANAPOLIS   CLOUDY    50  49  96 E10       29.89F
-EAGLE CREEK   CLOUDY    51  47  86 SE10      29.88F
KOKOMO +       CLOUDY    46  44  93 E15       29.91F
MARION +       CLOUDY    45  45 100 E12       29.93F FOG
MT COMFORT *+  CLOUDY    50  50 100 SE12      29.90F
SHELBYVILLE    CLOUDY    51  48  89 E9        29.89F
ZIONSVILLE +   CLOUDY    49  47  95 SE13      29.89F

$$

INZ033-034-041-042-049-050-058-059-242300-
EAST CENTRAL INDIANA

CITY           SKY/WX    TMP DP  RH WIND       PRES   REMARKS
MUNCIE         CLOUDY    51  47  86 SE13      29.92F
RICHMOND +     LGT RAIN  46  46 100 E15       29.94F

$$

INZ060-061-067>069-081>083-085>088-242300-
SOUTHWEST INDIANA

CITY           SKY/WX    TMP DP  RH WIND       PRES   REMARKS
EVANSVILLE     LGT RAIN  54  54 100 E5        29.82F FOG
HUNTINGBURG +  LGT RAIN  53  52  96 E13       29.80F
WASHINGTON +   RAIN      55  53  94 SE12      29.83F

$$

INZ062-063-066-070>080-084-089>092-242300-
SOUTH CENTRAL AND SOUTHEAST INDIANA

CITY           SKY/WX    TMP DP  RH WIND       PRES   REMARKS
BATESVILLE +   PTSUNNY   50  50 100 MISG      29.91F FOG
BEDFORD +      DRIZZLE   52  50  93 E6        29.87F
BLOOMINGTON    CLOUDY    52  51  97 SE12      29.85F FOG
FRENCH LICK *+ CLOUDY    52 N/A N/A SE6       29.87F
MADISON *+     CLOUDY    52  50  93 E6        29.91F
NORTH VERNON + RAIN      50  50 100 E5        29.91F
SEYMOUR +      TSTM      54  54 100 CALM      29.89F

$$




USA.gov is the U.S. government's official web portal to all federal, state and local government web resources and services.